Location: Fort Worth, Tx
(32.7431°N, 97.3695°W)
Time: 02:55:58
(UTC-05:00)

Altair - Pass Details

Date: 04 October 2023
Orbit: 1501 x 1682 km, 47.2° (Epoch: 12 November)

Event Time Altitude Azimuth Distance (km) Brightness Sun altitude
Rises 11:19:45 0° 302° (WNW) 4,921 9.6 33.7°
Reaches altitude 10° 11:23:07 10° 296° (WNW) 3,940 9.2 34.3°
Maximum altitude 11:32:25 43° 230° (SW) 2,230 8.6 35.9°
Drops below altitude 10° 11:41:39 10° 163° (SSE) 3,901 10.5 37.5°
Sets 11:44:59 0° 156° (SSE) 4,868 10.9 38.0°
